Wind_Speed
32 32 32 34 36 37 36 36 36 32 34 32 32 32 30 29 33 35 33 26 30 28 28 30 29 26 26 23 24 29 29 26 23 28 27 26 26 31 34 39 42 35 30 25
35 36 36 36 36 37 38 39 43 41 36 32 33 34 33 32 33 34 35 30 29 28 32 35 31 31 30 34 28 33 29 30 26 24 21 22 30 32 36 38 39 36 38 30
44 43 42 42 41 39 39 40 42 43 39 37 38 36 32 31 31 36 38 38 29 29 36 37 39 37 35 37 35 32 35 37 31 32 31 31 26 35 38 40 37 41 44 38
53 51 48 46 45 45 43 43 44 46 46 41 43 42 35 33 30 35 37 38 35 32 38 40 47 47 43 36 36 35 35 37 41 35 30 30 33 32 46 42 41 39 45 46
57 57 53 52 50 48 47 47 46 46 44 46 46 43 38 37 32 38 41 42 37 35 37 46 49 51 51 45 41 41 39 31 40 49 34 30 29 32 46 43 46 43 47 53
59 57 55 54 53 51 50 50 50 48 42 43 43 40 44 42 39 37 40 42 40 38 40 45 50 50 52 51 48 47 44 37 30 47 43 32 29 36 39 39 42 51 52 50
57 57 55 54 53 52 52 51 49 49 41 39 39 40 44 41 41 38 38 41 43 40 41 43 51 57 50 47 51 48 45 39 36 39 53 56 39 37 32 44 44 48 49 57
53 54 53 52 51 51 47 46 46 45 44 42 39 40 39 38 39 37 37 39 40 38 40 47 49 54 54 47 42 44 38 28 36 36 44 50 42 43 42 39 49 49 49 51
50 50 50 50 48 46 44 44 46 46 45 39 36 36 35 34 35 35 38 40 39 35 36 52 58 53 52 55 49 43 34 28 19 40 42 49 47 49 43 41 40 43 46 50
45 47 46 46 46 46 45 44 43 43 40 36 34 35 35 34 34 34 34 38 39 40 38 44 57 46 47 52 47 43 43 40 33 30 40 44 54 50 45 47 46 39 41 43
44 44 44 45 44 44 45 42 42 40 38 36 36 37 36 34 34 33 31 36 37 39 38 53 55 56 49 55 50 46 39 38 39 36 36 40 39 58 48 51 48 45 47 49
39 40 40 39 38 38 37 37 39 38 36 34 35 37 36 36 34 34 33 36 36 35 36 45 58 56 44 43 47 44 43 42 37 35 34 34 35 39 49 57 54 48 49 52
37 38 39 39 39 39 38 37 39 38 35 35 35 28 34 34 33 32 32 33 35 31 31 37 52 45 37 33 44 45 41 36 33 29 35 36 36 34 37 41 44 49 53 57
30 31 31 32 33 34 36 35 34 35 34 34 28 25 27 34 33 31 31 32 35 29 32 37 37 33 32 32 38 36 33 30 30 28 30 24 23 23 23 27 29 33 37 40
26 26 27 27 28 29 29 26 27 31 32 31 26 24 25 30 30 29 27 27 30 28 30 36 37 29 33 35 30 34 33 30 27 23 17 19 18 17 16 19 19 20 25 29
16 18 17 16 17 20 22 18 14 21 27 25 22 24 25 30 25 25 28 22 30 36 37 33 29 29 31 37 35 42 40 33 22 17 15 17 16 19 17 17 16 18 23 28
13 14 15 13 14 15 15 16 18 17 22 29 30 22 19 24 26 30 24 25 35 40 40 35 29 23 29 38 40 33 34 27 22 20 18 19 16 13 13 12 17 22 26 31
13 12 11 11 9 9 14 16 20 23 24 20 21 20 19 21 24 23 27 26 35 37 36 33 28 25 30 38 40 41 33 26 28 24 25 22 18 19 18 20 22 25 29 31
15 11 9 9 5 4 7 7 10 11 9 3 6 12 19 23 27 32 31 36 39 39 32 27 19 24 27 25 31 33 26 26 26 25 27 22 20 20 21 22 22 24 29 31
14 15 11 8 2 9 18 20 14 10 9 10 12 21 28 34 36 38 39 41 40 38 31 27 20 19 24 27 31 31 27 25 25 26 25 21 20 22 22 22 23 23 27 27
11 10 11 12 15 17 15 16 11 12 12 8 6 20 35 31 35 35 36 39 39 34 29 29 21 20 24 28 29 29 29 29 28 27 25 24 22 21 21 21 21 22 25 25
6 7 9 10 9 10 9 7 7 5 9 6 6 3 15 30 31 31 37 35 34 32 29 21 17 21 26 26 27 29 29 29 31 30 28 24 23 23 21 20 21 21 23 23
3 5 4 3 1 1 1 1 3 4 7 7 8 8 3 13 14 16 15 16 17 16 18 18 19 23 24 24 27 28 28 30 31 29 28 26 25 24 23 23 22 20 21 20
4 5 7 6 4 3 4 4 4 4 4 3 5 8 10 9 13 19 19 11 16 19 18 17 22 22 17 21 24 27 28 29 29 29 29 27 26 24 24 24 23 21 19 18
7 8 9 6 7 7 8 9 9 8 8 8 7 9 11 16 11 15 17 18 19 18 17 18 20 22 21 20 23 26 28 29 30 30 30 29 28 27 27 26 25 21 20 19
8 8 9 9 9 8 8 10 11 12 12 13 13 13 13 15 19 18 16 18 17 19 19 17 19 21 23 25 25 26 29 29 28 28 29 29 29 29 28 27 27 25 22 19
12 10 11 11 11 12 11 11 12 11 12 14 16 18 19 17 18 20 17 20 17 18 18 18 20 20 19 25 29 29 27 26 25 25 27 28 28 28 28 27 28 27 24 21
Wind_Direction
292 292 293 291 290 287 285 284 287 287 285 286 284 281 279 276 272 277 273 263 266 259 256 255 252 250 249 245 242 232 218 215 216 225 221 215 220 217 222 222 223 219 205 217
294 294 294 294 291 289 287 286 286 285 284 282 279 278 278 273 272 274 274 270 254 252 243 241 237 240 245 255 247 242 216 204 202 209 211 208 219 216 223 225 218 211 209 213
290 291 290 291 290 287 285 285 284 284 287 285 284 280 277 274 270 267 268 270 255 244 237 234 227 235 239 244 251 236 222 210 207 208 217 224 214 209 214 221 222 208 209 214
287 289 286 285 285 285 283 281 281 282 284 280 276 275 272 269 262 264 260 259 256 239 236 224 228 227 233 241 247 240 234 220 213 208 214 224 228 221 209 211 214 204 209 214
285 285 283 282 282 281 280 279 279 277 275 276 276 275 272 266 250 249 254 256 252 238 230 227 222 231 234 240 242 245 241 236 221 214 208 214 218 213 210 213 215 206 209 212
281 281 279 278 280 279 277 277 276 274 270 270 270 271 272 270 266 249 252 257 257 247 233 228 223 230 232 233 236 237 242 245 237 219 211 214 207 209 211 203 212 216 217 213
277 276 275 274 277 277 276 275 272 272 268 262 263 264 264 265 262 256 248 250 254 259 255 241 229 226 230 232 238 241 244 243 241 221 217 226 226 210 202 210 212 214 218 219
274 275 275 275 274 274 270 268 266 265 268 266 262 261 259 256 257 257 251 248 254 258 260 242 223 232 233 235 238 239 240 240 238 218 215 218 214 217 211 202 214 229 229 226
277 276 275 274 270 267 265 264 265 265 265 264 259 254 253 252 254 252 253 255 247 245 253 241 234 231 237 231 235 235 231 221 230 219 220 220 216 217 219 203 210 219 227 232
281 278 276 274 272 270 267 266 266 264 264 261 252 249 251 256 257 255 253 250 245 246 247 255 244 231 230 231 225 233 231 227 237 233 226 227 217 219 228 230 220 220 229 237
279 277 275 273 272 272 271 268 266 264 261 257 250 250 249 253 257 255 257 250 242 238 252 245 248 249 222 230 229 226 229 232 237 237 229 228 234 215 224 230 238 241 245 248
282 280 277 274 272 270 269 268 266 263 261 258 254 252 253 253 252 250 253 251 245 241 247 254 246 246 240 238 243 236 238 239 237 233 232 232 228 225 223 229 233 238 242 244
283 279 276 273 271 269 267 263 261 263 261 259 255 254 251 249 243 247 255 245 238 241 242 242 241 244 236 237 238 237 236 231 230 229 230 230 231 231 231 231 233 238 243 246
287 281 277 275 270 268 265 263 260 261 261 256 257 250 246 249 241 247 243 242 238 240 242 241 236 233 227 226 233 233 223 222 221 221 226 223 226 229 229 230 234 239 245 249
291 288 284 275 268 268 265 263 259 259 259 265 258 251 240 245 238 240 229 223 234 236 238 241 236 234 226 219 212 214 216 225 233 237 235 223 214 206 212 224 237 248 257 263
313 317 304 283 272 268 266 272 266 253 252 253 240 236 249 240 236 227 221 230 215 221 229 235 229 224 212 197 206 220 219 227 232 242 215 199 195 207 214 225 241 261 281 281
303 317 317 307 282 276 253 263 254 255 260 266 273 266 249 238 235 221 217 206 206 219 227 231 217 228 216 207 212 209 213 212 210 205 212 213 210 220 232 258 276 285 299 300
318 318 322 329 319 266 260 259 251 248 254 247 245 248 242 222 211 209 208 206 213 221 219 232 237 235 220 209 213 210 213 201 194 200 211 218 228 240 254 265 285 297 311 305
4 1 339 331 359 52 73 97 114 136 139 134 219 207 193 186 190 194 196 201 206 214 224 232 233 233 217 205 212 223 207 195 194 200 217 225 233 242 255 267 281 296 305 306
11 29 18 348 23 100 107 100 94 116 138 93 116 164 171 176 183 194 201 208 209 219 221 233 242 227 212 221 218 217 213 201 197 215 220 226 241 250 259 269 277 288 300 302
36 61 63 62 78 89 115 119 96 79 115 115 73 168 187 192 195 198 205 201 206 219 231 241 256 222 218 216 222 218 212 209 210 221 230 236 245 256 263 270 277 284 295 309
25 35 44 47 73 57 74 116 141 130 83 121 167 170 183 206 218 222 217 225 233 240 248 244 225 224 226 219 215 217 218 217 220 224 229 237 248 256 261 265 276 285 294 305
15 25 34 38 57 173 164 127 76 88 166 205 205 231 255 187 186 229 220 206 214 214 220 229 221 230 231 221 215 215 220 226 232 235 236 241 248 252 257 265 275 285 286 301
303 334 336 327 316 283 266 246 250 244 221 218 265 230 220 230 226 201 208 219 218 225 224 218 215 226 230 219 216 219 223 230 239 247 250 251 252 252 254 260 267 277 285 288
290 301 310 306 287 268 264 263 258 257 253 238 237 226 218 222 220 214 234 233 225 230 219 214 220 231 225 227 230 233 236 240 244 248 251 252 252 254 258 258 261 266 270 275
314 300 288 281 278 279 275 270 269 261 251 246 246 249 243 234 226 243 236 228 231 225 232 230 228 226 228 229 237 238 237 239 242 245 248 250 252 253 253 254 255 255 260 266
309 302 298 290 274 270 274 270 271 269 271 269 257 250 244 243 243 234 245 236 229 235 239 239 237 232 228 220 232 233 237 240 246 252 253 253 255 259 257 252 251 251 254 254
Height
5843 5841 5840 5839 5836 5835 5833 5830 5830 5831 5827 5827 5825 5824 5824 5824 5820 5820 5821 5822 5821 5822 5822 5820 5819 5821 5824 5828 5831 5834 5837 5839 5843 5845 5849 5854 5856 5860 5862 5865 5870 5876 5882 5883
5833 5830 5828 5827 5825 5823 5821 5820 5815 5815 5817 5818 5816 5814 5814 5813 5812 5811 5809 5812 5813 5814 5814 5813 5814 5813 5816 5818 5824 5827 5832 5834 5838 5841 5844 5844 5847 5852 5856 5860 5863 5870 5874 5877
5821 5818 5816 5814 5813 5811 5809 5808 5804 5802 5803 5803 5802 5802 5803 5803 5802 5800 5798 5798 5803 5804 5802 5805 5806 5806 5808 5811 5814 5819 5824 5828 5832 5836 5836 5839 5841 5843 5847 5852 5857 5862 5866 5870
5806 5804 5802 5800 5798 5796 5796 5794 5792 5790 5789 5789 5786 5786 5790 5789 5790 5788 5787 5788 5791 5793 5793 5797 5795 5798 5799 5802 5805 5810 5815 5821 5825 5829 5831 5833 5836 5839 5841 5844 5849 5856 5859 5864
5789 5787 5785 5783 5782 5780 5779 5778 5778 5776 5775 5773 5772 5773 5775 5774 5777 5775 5774 5775 5780 5782 5782 5787 5787 5788 5791 5794 5798 5800 5804 5809 5814 5821 5825 5826 5830 5832 5831 5837 5840 5848 5851 5857
5770 5768 5767 5766 5764 5763 5762 5760 5759 5759 5759 5758 5757 5759 5757 5759 5763 5764 5764 5764 5767 5771 5771 5775 5778 5778 5782 5785 5787 5790 5796 5800 5805 5810 5817 5820 5826 5824 5827 5831 5834 5840 5845 5851
5749 5748 5747 5746 5745 5744 5744 5743 5742 5741 5745 5743 5744 5744 5742 5745 5747 5751 5754 5753 5754 5761 5764 5764 5764 5767 5770 5774 5775 5782 5785 5792 5794 5799 5806 5810 5822 5815 5818 5823 5827 5830 5835 5840
5729 5728 5728 5727 5726 5726 5726 5724 5725 5725 5727 5729 5730 5729 5731 5732 5734 5737 5740 5742 5745 5749 5753 5754 5753 5752 5760 5762 5765 5771 5778 5782 5782 5790 5796 5801 5812 5808 5810 5814 5820 5825 5829 5832
5711 5710 5709 5709 5709 5708 5708 5708 5707 5709 5710 5715 5714 5715 5717 5721 5723 5725 5725 5728 5732 5735 5737 5739 5738 5742 5749 5753 5758 5763 5769 5774 5777 5782 5786 5790 5801 5801 5805 5809 5811 5813 5816 5822
5696 5695 5694 5693 5693 5693 5693 5693 5691 5692 5695 5700 5701 5702 5705 5708 5710 5712 5713 5715 5719 5721 5724 5724 5727 5732 5739 5743 5750 5754 5757 5762 5769 5773 5776 5780 5788 5796 5798 5802 5809 5808 5809 5811
5680 5678 5677 5676 5676 5677 5680 5681 5677 5678 5681 5685 5687 5689 5693 5695 5697 5700 5703 5702 5705 5710 5712 5715 5717 5720 5729 5731 5740 5744 5750 5754 5758 5764 5766 5768 5775 5785 5790 5796 5799 5800 5802 5805
5666 5664 5663 5663 5662 5661 5662 5668 5666 5665 5667 5673 5674 5677 5681 5683 5685 5687 5690 5691 5694 5698 5700 5702 5706 5712 5720 5727 5730 5735 5741 5744 5750 5755 5759 5762 5768 5775 5782 5788 5791 5791 5792 5793
5652 5650 5650 5649 5648 5648 5649 5651 5652 5653 5655 5658 5661 5667 5666 5670 5673 5675 5679 5681 5682 5687 5690 5695 5698 5707 5713 5717 5722 5727 5732 5738 5740 5748 5750 5754 5760 5766 5772 5777 5780 5783 5784 5784
5640 5638 5637 5635 5634 5635 5636 5638 5641 5642 5643 5644 5651 5655 5657 5658 5662 5666 5668 5672 5674 5678 5682 5688 5694 5702 5706 5710 5713 5719 5725 5731 5734 5739 5740 5748 5754 5759 5764 5768 5770 5771 5772 5774
5631 5629 5626 5624 5625 5625 5624 5627 5630 5630 5633 5635 5639 5645 5645 5648 5652 5654 5657 5663 5667 5670 5676 5682 5688 5693 5697 5701 5705 5711 5715 5721 5727 5732 5739 5743 5747 5752 5755 5758 5762 5764 5765 5765
5625 5621 5617 5616 5617 5617 5617 5619 5621 5622 5623 5625 5628 5632 5635 5638 5640 5645 5649 5654 5658 5664 5670 5677 5682 5687 5691 5694 5699 5704 5711 5717 5722 5728 5733 5737 5741 5744 5748 5752 5754 5756 5756 5755
5621 5618 5616 5614 5612 5611 5612 5613 5615 5616 5617 5618 5620 5622 5625 5629 5632 5636 5643 5647 5654 5662 5666 5670 5677 5681 5684 5690 5692 5699 5705 5713 5721 5723 5727 5731 5733 5736 5740 5742 5743 5744 5743 5740
5618 5616 5614 5612 5608 5607 5607 5607 5608 5609 5611 5613 5614 5616 5618 5620 5625 5631 5638 5645 5651 5656 5662 5666 5672 5675 5677 5683 5688 5693 5701 5708 5714 5718 5721 5725 5728 5730 5731 5732 5732 5732 5730 5727
5618 5615 5613 5612 5610 5608 5606 5605 5605 5607 5611 5610 5610 5611 5615 5619 5623 5630 5638 5644 5649 5654 5658 5664 5669 5671 5676 5685 5688 5690 5697 5703 5708 5713 5716 5719 5722 5724 5725 5726 5726 5724 5722 5719
5621 5617 5615 5613 5611 5611 5611 5611 5612 5612 5612 5613 5612 5614 5618 5624 5628 5633 5639 5642 5646 5651 5657 5660 5666 5671 5676 5679 5682 5686 5691 5698 5705 5708 5711 5714 5716 5717 5718 5718 5718 5717 5715 5712
5624 5623 5620 5618 5615 5614 5615 5615 5616 5616 5615 5617 5619 5621 5623 5627 5631 5635 5638 5642 5647 5651 5655 5657 5663 5669 5672 5675 5679 5683 5688 5694 5699 5702 5704 5706 5709 5710 5711 5711 5710 5709 5707 5705
5625 5624 5622 5620 5619 5618 5619 5618 5619 5620 5621 5622 5622 5624 5626 5631 5633 5636 5638 5641 5646 5648 5651 5654 5660 5664 5666 5671 5675 5678 5684 5689 5692 5695 5698 5700 5701 5702 5703 5703 5703 5702 5700 5698
5626 5625 5623 5622 5622 5621 5620 5620 5620 5621 5622 5624 5625 5627 5628 5630 5633 5634 5635 5638 5641 5645 5647 5651 5656 5657 5661 5667 5670 5673 5677 5681 5684 5687 5690 5693 5694 5695 5696 5696 5696 5695 5694 5693
5626 5624 5623 5623 5621 5621 5621 5621 5621 5621 5622 5622 5624 5625 5627 5628 5630 5631 5633 5637 5638 5640 5644 5648 5649 5652 5658 5661 5665 5668 5672 5675 5678 5680 5682 5684 5686 5687 5687 5688 5689 5689 5689 5688
5625 5624 5622 5620 5619 5618 5619 5619 5619 5620 5620 5621 5622 5623 5624 5625 5626 5628 5631 5633 5634 5636 5639 5642 5646 5648 5651 5653 5657 5661 5665 5667 5670 5671 5674 5676 5678 5679 5679 5680 5681 5682 5682 5682
5623 5621 5619 5618 5617 5616 5616 5615 5616 5617 5618 5618 5619 5620 5621 5621 5622 5624 5626 5628 5631 5634 5634 5638 5641 5642 5644 5647 5649 5652 5654 5657 5659 5662 5665 5667 5669 5670 5670 5672 5673 5674 5675 5676
5620 5618 5616 5615 5613 5613 5613 5612 5612 5612 5613 5613 5615 5616 5616 5618 5618 5620 5621 5623 5625 5628 5630 5633 5635 5637 5638 5641 5642 5643 5646 5650 5652 5654 5655 5657 5659 5661 5662 5663 5664 5666 5668 5669